Temperature
14 14 14 14 12 11 12 12 13 14 15 17 18 18 17 18 18 20 22 22 21 20 19 17 16 16 16 16 16 16 16 16 16 16 15 15 15 14 14 14 14 13 13 13 13 13 12 12 12
13 14 14 13 11 12 12 12 13 14 17 18 18 19 18 19 20 21 22 21 20 20 18 17 16 16 16 16 16 15 15 16 15 15 15 15 14 14 14 13 13 13 13 13 12 12 12 12 12
13 13 13 11 11 12 13 13 14 16 17 17 18 18 18 19 20 21 22 21 20 19 18 17 16 16 16 16 15 15 15 15 15 15 15 14 14 14 13 13 13 13 13 13 12 12 12 12 12
13 13 12 11 12 12 13 14 14 15 17 17 17 17 18 19 20 21 21 20 19 18 17 16 16 15 15 15 15 15 15 15 14 14 14 14 14 13 13 13 13 13 13 12 12 12 12 12 12
12 12 11 11 12 12 13 14 15 15 16 17 17 16 18 19 20 20 20 20 19 18 17 16 15 15 15 15 15 15 15 14 14 14 13 13 13 13 13 13 12 12 12 12 12 12 12 12 11
12 11 11 12 12 13 13 15 15 14 15 16 17 16 18 19 19 20 19 19 18 17 16 15 15 15 15 15 14 14 14 14 14 13 13 13 12 12 13 12 12 12 12 12 12 12 11 11 11
11 10 11 12 12 13 14 15 15 14 14 16 17 16 17 18 18 19 18 17 16 16 15 15 15 15 15 14 14 14 14 14 13 13 13 12 12 12 12 12 12 12 11 11 11 11 11 11 11
11 10 11 11 12 13 15 16 16 16 15 17 18 16 17 18 18 17 17 16 15 15 15 14 14 14 14 14 14 14 14 13 13 13 13 12 12 12 12 12 12 11 11 11 11 11 11 11 11
10 10 11 11 12 13 14 15 16 17 17 17 17 18 18 18 17 16 15 14 14 14 14 14 14 14 14 14 13 13 13 13 13 12 12 12 12 12 12 12 11 11 11 11 11 11 11 11 11
9 9 11 12 12 13 14 14 15 15 15 15 16 17 17 17 16 15 15 14 14 14 14 14 14 14 14 13 13 13 13 13 12 12 12 12 12 12 12 11 11 11 11 11 11 11 11 11 11
9 9 11 12 13 13 13 14 15 15 14 15 16 16 16 16 15 14 15 16 16 15 14 14 14 14 13 13 13 13 13 13 12 12 12 12 12 12 12 11 11 11 11 11 11 11 11 11 11
9 9 11 11 12 13 13 13 13 14 15 17 17 17 16 15 14 15 15 15 15 14 14 14 13 13 13 13 13 13 13 13 12 12 12 12 12 12 12 11 11 11 11 11 11 11 11 11 10
8 9 10 11 12 12 12 12 12 13 15 16 16 16 15 15 15 15 15 15 14 14 14 13 13 13 13 13 13 13 13 13 12 12 12 12 12 12 12 11 11 11 11 11 11 11 11 10 10
8 9 9 10 11 11 12 12 12 13 14 15 15 15 15 15 15 14 14 14 14 14 14 13 13 13 13 13 13 13 13 13 12 12 12 12 12 12 12 11 11 11 11 11 11 11 11 10 10
8 8 8 9 10 11 11 11 11 13 14 14 14 15 15 15 15 15 15 15 15 15 14 14 13 13 13 13 13 13 13 13 12 12 12 12 12 12 12 11 11 11 11 11 10 10 10 10 10
7 7 7 9 10 11 11 10 12 13 13 13 14 14 14 14 14 15 15 15 15 15 14 14 13 13 13 13 13 13 13 13 12 12 12 12 12 12 11 11 11 11 11 10 10 10 10 10 10
6 7 7 8 10 10 10 10 11 12 12 12 13 13 14 14 14 14 15 15 15 15 15 14 14 13 13 13 13 13 13 13 12 12 12 12 12 12 11 11 11 11 10 10 10 10 10 10 10
6 6 7 7 9 9 9 9 10 11 11 12 12 13 13 14 15 15 15 15 15 14 14 14 14 13 13 13 12 12 12 12 12 12 12 12 12 12 11 11 11 10 10 10 10 10 10 10 9
6 6 6 7 9 9 9 9 10 10 11 11 11 12 13 14 16 15 15 14 14 14 14 14 14 13 13 13 12 12 12 12 12 12 12 12 12 12 11 11 11 11 10 10 10 10 10 9 9
5 5 6 7 8 9 8 9 10 10 10 11 12 12 13 14 15 15 14 14 14 14 14 14 14 14 14 14 14 13 13 13 13 13 12 12 12 12 12 11 11 11 10 10 10 10 10 9 9
6 5 6 6 7 8 8 8 9 10 11 11 12 13 14 14 15 15 15 15 15 14 15 15 15 14 14 14 13 13 12 12 12 12 12 12 12 12 12 12 11 11 11 10 10 10 10 10 9
5 6 6 7 6 6 7 7 8 9 10 10 11 12 13 14 15 15 15 15 15 16 16 15 15 15 15 14 14 13 13 13 14 14 13 13 12 12 12 12 11 11 11 10 10 10 10 10 9
5 6 6 6 6 5 6 6 7 8 9 10 10 12 13 14 14 15 15 16 16 16 16 16 15 15 15 14 14 14 14 14 14 14 13 13 13 12 12 12 11 11 11 11 10 10 10 10 10
6 5 5 5 5 5 6 6 6 7 9 10 10 12 13 14 14 15 15 16 16 16 16 16 15 15 15 14 14 14 14 14 14 14 14 13 13 13 12 12 12 11 11 11 11 10 10 10 10
5 4 4 4 4 5 6 6 7 8 8 10 10 11 13 13 14 14 15 15 15 15 16 15 15 15 15 15 14 14 14 14 14 14 14 14 14 13 13 13 12 12 11 11 11 10 10 10 10
5 4 4 4 5 5 6 6 7 8 8 9 10 11 12 12 13 14 14 15 15 15 16 16 16 16 15 15 15 15 15 14 14 14 14 14 15 14 14 14 13 12 12 11 11 10 10 10 9
4 4 5 4 4 4 5 6 7 8 8 8 9 10 11 12 12 13 14 14 15 15 16 16 16 16 16 16 15 15 15 15 15 15 14 14 14 14 14 14 13 13 12 11 11 10 10 10 9
4 4 4 4 4 5 5 6 6 7 8 8 8 8 10 11 11 12 13 14 14 15 15 16 16 16 16 16 16 16 15 15 15 15 14 14 15 14 14 14 13 13 12 11 11 10 10 10 10
3 3 3 3 3 4 5 6 7 7 7 7 8 8 9 9 10 11 12 13 14 14 15 15 16 16 16 16 16 16 16 16 15 15 15 14 14 14 14 14 13 13 12 11 11 10 10 10 9
3 3 2 2 2 2 3 5 7 6 6 6 7 8 8 9 9 10 11 12 13 13 14 14 15 15 16 16 16 16 16 15 15 15 15 14 14 14 14 13 13 12 12 11 11 10 10 10 10
Wind_Speed
1 5 4 4 3 2 8 8 6 5 6 5 5 6 8 9 7 6 1 11 13 16 19 24 27 26 25 24 23 22 21 20 19 19 18 18 18 17 17 17 17 16 16 16 17 17 17 17 16
2 3 4 3 4 8 9 8 10 10 6 1 1 3 4 7 4 3 3 9 14 17 18 22 27 26 25 24 23 22 21 20 19 19 18 18 18 18 17 16 16 16 16 16 16 16 16 16 16
1 3 4 4 7 12 9 7 12 9 7 3 2 3 5 6 4 5 6 11 14 15 17 22 27 27 26 25 24 22 22 21 20 19 18 18 18 17 17 16 16 16 16 15 15 15 15 15 15
2 2 2 6 16 13 9 4 4 3 4 5 4 5 4 3 4 5 8 13 16 14 15 23 28 27 26 25 24 23 22 21 20 19 19 18 18 17 17 16 16 16 16 15 15 14 14 14 14
1 3 6 12 19 11 8 7 4 3 3 2 3 4 5 4 1 7 12 15 17 14 15 22 27 27 26 25 24 23 22 21 20 20 19 18 18 17 17 16 16 16 15 14 14 13 13 13 13
2 4 9 18 19 11 8 7 5 7 6 4 4 4 5 2 4 9 12 13 13 14 14 19 26 26 26 25 24 23 22 21 20 19 19 18 18 17 17 16 16 15 14 13 13 12 12 12 12
5 6 13 14 14 13 10 7 8 9 10 8 6 4 4 2 5 10 11 11 11 11 12 13 20 23 25 24 23 23 22 21 20 19 19 18 18 17 16 16 15 14 13 12 12 11 11 11 11
4 5 11 12 13 14 7 6 7 10 11 6 8 8 7 5 9 11 11 11 11 10 10 11 14 17 19 20 23 22 21 21 20 19 18 18 18 17 16 15 14 13 12 12 11 11 10 10 10
4 8 16 14 11 8 4 6 6 5 5 5 6 6 4 11 15 16 13 12 14 13 11 11 12 13 15 17 20 21 21 20 19 18 19 17 15 14 14 14 14 13 12 11 10 10 10 9 9
7 13 19 9 6 5 5 7 6 4 5 5 3 1 7 16 18 20 20 21 21 19 16 12 13 13 14 15 16 16 16 17 16 16 16 15 14 13 13 14 13 12 11 10 10 10 9 9 8
7 12 10 9 7 6 6 7 5 6 9 8 7 6 12 16 18 20 21 22 22 20 17 15 14 13 13 10 11 11 12 13 14 16 16 15 13 12 11 10 10 10 9 8 8 8 8 8 6
8 11 9 8 7 8 8 6 7 10 12 7 8 10 15 18 20 21 21 20 17 17 18 16 14 13 12 11 10 9 9 9 10 14 17 14 9 8 8 7 7 7 8 7 7 6 6 6 5
12 10 10 9 9 10 10 11 10 12 12 7 6 11 17 19 19 18 16 16 16 18 18 17 16 15 13 11 10 10 9 9 12 14 15 15 9 7 6 6 7 7 8 7 5 5 4 4 3
8 8 10 10 10 9 11 13 11 13 7 6 9 14 17 19 18 15 16 18 20 20 20 18 18 16 14 12 10 10 10 11 12 13 15 16 13 9 7 6 6 6 7 7 6 4 4 3 2
6 8 10 10 10 7 7 14 14 12 6 8 10 13 16 15 15 17 19 20 21 21 20 20 19 16 16 14 12 11 11 12 10 12 15 16 14 12 9 6 5 7 8 7 5 4 4 2 2
4 7 9 7 8 6 7 16 11 7 7 10 10 11 12 14 15 15 15 15 17 18 20 20 18 18 17 14 12 10 11 11 10 13 14 15 16 15 11 7 6 8 9 7 4 3 2 2 1
5 8 10 8 7 5 8 11 7 5 7 10 10 11 12 13 13 13 14 14 16 18 19 20 19 19 17 14 11 10 11 11 11 13 13 15 16 16 12 7 7 10 7 5 4 2 2 2 2
6 7 8 8 5 6 10 12 8 6 8 10 10 11 11 14 17 14 15 15 15 16 17 19 18 18 16 12 10 9 9 9 10 11 13 15 15 16 13 8 8 9 5 4 4 3 2 2 2
7 8 10 10 7 7 12 14 11 9 9 10 10 11 12 15 14 11 12 13 14 16 18 19 19 19 16 15 14 13 13 11 10 10 14 16 16 16 13 8 8 8 7 7 6 4 3 2 2
8 9 10 9 7 7 10 14 12 11 12 12 12 12 13 13 10 10 12 13 16 19 20 21 21 20 19 17 15 11 10 8 8 8 11 16 16 16 14 11 9 8 7 7 7 5 4 2 3
9 9 8 8 9 6 7 10 11 10 10 11 11 11 13 15 14 13 13 15 17 19 22 21 23 21 21 17 11 9 7 6 7 10 11 13 16 17 15 13 10 10 9 8 8 8 7 4 3
8 6 8 8 6 5 3 7 8 8 9 11 11 11 12 14 14 13 13 15 17 20 20 22 22 21 21 19 16 17 14 13 14 11 11 11 14 15 15 14 13 11 9 9 9 8 6 6 4
5 4 6 8 6 6 5 6 8 5 9 11 11 11 11 11 13 14 14 16 17 18 18 20 21 22 21 20 20 19 16 13 8 8 11 11 11 13 14 14 13 12 10 10 10 9 8 6 6
3 3 5 4 2 7 8 7 8 5 9 9 10 10 10 9 10 12 12 12 14 14 15 17 19 21 21 22 21 21 20 15 12 12 13 12 10 11 13 14 13 12 11 11 10 11 10 8 7
2 2 1 1 4 7 5 7 9 6 6 9 9 8 8 7 7 9 9 10 12 13 15 16 19 21 22 23 23 23 21 19 18 16 15 13 11 11 15 14 13 12 11 11 10 10 10 9 9
4 5 4 3 4 3 3 8 7 6 6 6 7 7 6 6 6 8 9 10 12 13 15 17 19 20 21 23 23 22 20 17 15 15 13 15 13 14 13 15 13 12 12 11 11 9 10 9 9
2 4 3 2 3 3 5 6 7 4 4 4 5 5 6 6 6 6 7 8 10 11 14 17 19 19 20 22 22 21 20 19 17 15 14 13 11 11 13 14 13 13 12 12 11 9 10 9 9
3 1 1 2 2 4 5 5 4 4 5 6 6 7 7 6 5 5 5 7 8 9 11 13 17 19 19 20 20 17 20 20 17 15 16 15 14 12 13 14 14 13 13 12 12 9 9 10 9
1 1 1 2 3 3 4 5 2 2 4 6 7 6 7 7 6 6 5 5 6 7 8 10 12 14 15 17 18 18 18 19 17 16 16 15 13 14 15 15 15 14 14 13 12 11 11 11 10
4 4 3 2 4 3 4 7 2 2 5 6 8 8 7 7 6 5 4 4 2 4 6 8 10 11 13 14 16 17 17 16 17 17 16 15 15 14 15 14 14 14 14 13 13 13 12 12 11
Wind_Direction
309 105 90 74 83 218 234 229 215 221 221 216 187 180 190 189 179 213 314 150 146 154 164 165 162 159 156 152 149 146 144 141 140 138 135 133 130 128 126 123 120 117 114 113 111 109 105 101 98
112 113 80 95 171 222 241 221 219 220 210 147 191 204 212 236 228 197 161 161 150 155 161 162 161 159 157 154 152 150 147 145 143 141 139 137 133 129 126 125 122 119 116 113 112 111 108 103 100
153 133 139 158 205 217 228 216 223 232 233 245 252 230 215 232 216 197 190 160 150 155 159 162 160 160 158 156 154 152 150 148 146 144 142 140 136 132 128 125 123 120 117 114 114 112 109 106 103
128 110 147 208 229 225 218 210 196 226 249 218 209 256 253 265 210 193 160 157 152 155 157 162 161 160 159 157 155 153 152 151 149 147 144 141 138 135 131 128 125 123 121 120 117 114 110 108 104
107 161 209 232 238 237 231 238 226 227 237 194 178 251 267 319 149 147 151 159 157 156 156 162 162 161 159 158 157 155 154 153 151 149 148 146 143 139 135 133 130 127 126 123 120 118 115 112 108
180 184 215 232 239 241 236 222 236 251 248 236 198 225 255 313 146 153 154 158 157 155 156 163 164 162 160 159 158 158 158 156 154 153 151 148 145 141 140 138 134 131 130 127 124 123 119 116 111
194 205 228 236 245 246 237 198 215 233 246 233 191 209 265 236 170 149 147 147 151 154 156 162 165 163 162 161 159 159 159 158 156 155 153 149 146 144 144 140 137 136 134 131 129 127 124 119 113
196 214 234 233 237 247 224 202 216 214 241 222 176 194 229 202 150 138 140 147 153 159 161 161 160 161 161 161 161 160 159 159 157 155 152 149 147 148 146 143 142 141 140 138 135 132 128 121 116
183 225 233 226 226 242 203 219 238 227 223 222 212 216 224 144 146 146 152 161 167 171 169 164 160 158 157 159 162 160 160 160 158 155 151 146 144 145 144 146 146 146 145 144 140 136 128 116 112
198 229 236 230 221 232 230 226 230 232 239 239 248 307 135 149 160 166 171 175 178 180 177 171 165 160 158 161 161 160 159 158 154 151 146 140 138 139 142 147 147 147 146 146 143 136 119 103 97
214 235 246 249 247 257 258 256 239 219 242 225 217 186 160 166 174 179 183 184 184 181 178 175 169 164 162 159 156 155 154 152 149 148 145 141 139 138 139 141 144 142 138 126 122 107 105 106 102
238 250 253 254 259 263 259 260 252 232 241 236 218 185 176 181 186 189 190 189 184 182 182 177 171 167 164 160 159 155 153 152 152 152 150 147 142 139 139 135 135 131 127 118 111 109 110 107 107
240 254 257 261 262 257 264 259 260 258 261 259 220 189 190 193 196 196 193 188 185 187 185 180 176 173 168 161 163 161 160 158 157 157 159 156 152 150 147 144 143 141 140 134 125 121 117 111 110
247 259 268 267 264 261 255 262 253 258 255 236 203 199 201 200 197 193 191 191 191 192 189 184 182 177 171 169 168 167 164 161 160 163 166 164 162 159 155 151 151 156 157 153 147 143 134 128 127
262 264 272 254 244 239 240 259 242 247 237 232 216 208 209 209 199 198 197 195 193 192 189 187 185 180 177 173 171 170 169 167 168 171 171 171 168 166 164 160 163 170 167 155 140 130 121 121 123
243 241 253 245 223 229 212 250 249 236 223 237 227 215 214 215 208 207 204 202 194 190 190 189 188 185 183 179 174 172 173 172 175 176 177 177 176 174 168 168 175 175 165 155 142 138 126 131 144
222 233 241 264 224 216 218 255 263 241 226 237 235 220 217 220 216 211 206 205 198 193 190 190 190 187 186 180 176 173 174 178 179 179 182 183 181 179 175 177 178 172 163 158 158 149 150 162 177
231 243 246 252 255 244 245 257 268 254 243 240 239 232 221 222 222 210 204 204 199 194 190 191 192 188 184 180 174 174 178 183 183 185 187 185 185 183 180 179 177 171 165 168 165 157 150 158 166
265 271 270 272 281 261 255 261 262 254 249 247 245 239 228 227 228 210 202 199 197 194 191 191 193 189 184 186 187 188 192 191 191 192 190 188 187 185 184 183 177 177 180 182 171 156 155 159 142
256 266 274 287 285 281 270 267 262 246 243 239 236 235 234 233 228 209 200 197 199 197 195 194 195 192 191 193 192 192 186 189 190 188 190 192 191 189 191 185 185 183 180 177 177 164 154 162 162
257 250 259 275 306 286 277 273 253 250 240 239 237 234 232 229 224 214 203 202 202 201 198 197 196 195 194 191 181 172 166 165 183 193 197 197 195 193 193 191 186 185 184 188 187 180 169 175 190
267 252 263 268 281 279 257 277 261 238 240 240 239 236 233 231 226 219 209 205 205 206 202 198 196 196 194 189 187 185 191 197 200 196 196 193 194 194 194 191 189 188 188 187 189 186 180 165 180
244 278 275 265 259 273 250 258 274 230 236 240 238 236 234 230 224 220 214 210 210 206 202 200 196 196 194 192 193 194 199 202 190 182 186 190 194 195 194 192 191 191 192 191 187 185 186 181 179
243 324 304 274 228 250 228 220 269 222 226 237 238 239 235 231 227 226 221 213 212 207 202 199 196 198 195 195 196 199 201 195 185 189 193 194 195 196 196 194 194 194 194 193 192 190 191 193 186
157 121 318 266 214 242 212 214 250 241 236 234 238 244 245 235 229 230 224 215 212 207 202 199 198 200 197 197 200 202 203 199 198 196 196 193 194 198 200 196 197 196 196 193 189 191 194 194 193
214 178 196 230 231 268 227 231 252 257 254 255 255 262 269 260 244 235 226 217 214 211 206 201 200 202 198 199 203 204 203 202 204 199 196 197 200 201 195 195 196 195 193 192 190 194 196 195 200
210 211 217 259 280 263 245 268 293 308 311 300 293 292 280 272 266 255 242 223 216 214 210 206 203 203 201 201 203 204 202 202 203 198 196 199 199 193 188 191 194 194 192 192 188 197 198 195 202
214 178 154 209 246 255 266 258 256 300 304 316 324 316 307 308 306 293 267 237 224 219 214 209 207 204 202 201 202 204 203 203 202 196 197 199 196 187 185 189 192 193 192 190 190 195 195 196 203
184 175 199 220 232 229 265 266 241 283 320 314 311 317 316 317 311 307 296 269 231 221 213 209 207 205 202 200 201 201 203 202 199 199 199 198 192 187 188 189 191 193 194 192 194 198 193 199 203
199 193 172 198 260 233 241 269 269 312 336 330 326 329 326 318 311 307 303 299 270 231 221 211 206 205 205 202 201 201 201 199 198 200 199 194 191 190 189 187 189 193 194 193 195 199 197 199 203
Height
1492 1493 1496 1498 1501 1505 1500 1490 1484 1481 1478 1475 1475 1476 1476 1477 1480 1480 1470 1469 1472 1476 1481 1486 1491 1495 1499 1502 1505 1508 1511 1513 1515 1517 1519 1521 1523 1524 1526 1527 1528 1529 1530 1532 1533 1533 1534 1535 1535
1489 1492 1495 1496 1501 1503 1493 1482 1479 1474 1472 1472 1473 1473 1472 1471 1470 1469 1467 1468 1472 1476 1480 1484 1489 1494 1498 1502 1505 1508 1510 1513 1515 1517 1519 1521 1523 1524 1526 1527 1528 1530 1531 1532 1533 1534 1535 1535 1536
1487 1489 1492 1493 1494 1488 1481 1474 1471 1469 1471 1471 1471 1470 1470 1467 1466 1466 1466 1468 1472 1476 1480 1484 1489 1493 1497 1501 1504 1507 1510 1512 1515 1517 1519 1521 1523 1524 1526 1527 1529 1530 1531 1532 1534 1535 1535 1536 1537
1485 1488 1488 1489 1480 1472 1470 1468 1468 1468 1469 1469 1470 1469 1467 1466 1465 1465 1465 1468 1471 1475 1479 1484 1489 1493 1496 1500 1504 1507 1510 1512 1515 1517 1519 1521 1523 1524 1526 1528 1529 1530 1532 1533 1534 1535 1536 1537 1538
1482 1482 1484 1480 1471 1466 1465 1466 1467 1467 1467 1467 1468 1467 1464 1463 1463 1463 1465 1467 1470 1474 1479 1484 1488 1492 1496 1500 1503 1506 1509 1512 1514 1516 1519 1521 1523 1524 1526 1528 1529 1531 1532 1534 1535 1536 1537 1538 1538
1478 1477 1478 1470 1464 1462 1463 1464 1466 1465 1465 1465 1466 1465 1461 1462 1462 1463 1465 1467 1471 1475 1479 1484 1488 1492 1495 1499 1502 1506 1509 1511 1514 1516 1518 1520 1522 1524 1526 1528 1529 1531 1533 1534 1535 1536 1537 1538 1539
1474 1473 1468 1464 1462 1460 1459 1461 1462 1462 1462 1462 1463 1463 1460 1460 1461 1462 1465 1468 1472 1476 1480 1484 1488 1492 1495 1498 1502 1505 1508 1511 1513 1516 1518 1520 1522 1524 1526 1528 1529 1531 1533 1534 1535 1537 1538 1539 1540
1468 1469 1464 1462 1460 1455 1455 1457 1457 1458 1457 1458 1460 1459 1457 1458 1459 1462 1465 1468 1472 1476 1480 1483 1487 1491 1494 1498 1501 1504 1507 1510 1513 1515 1517 1520 1522 1524 1526 1528 1530 1531 1533 1534 1536 1537 1538 1539 1540
1465 1466 1456 1455 1456 1453 1452 1454 1454 1454 1454 1455 1455 1455 1455 1456 1457 1460 1464 1468 1472 1475 1479 1482 1486 1489 1493 1496 1500 1503 1506 1509 1512 1515 1517 1519 1521 1524 1526 1528 1530 1531 1533 1534 1536 1537 1538 1540 1541
1459 1456 1448 1448 1450 1450 1450 1450 1451 1451 1451 1451 1451 1452 1453 1453 1455 1457 1459 1463 1467 1471 1475 1479 1483 1487 1491 1495 1498 1502 1505 1508 1511 1514 1516 1518 1521 1523 1525 1528 1529 1531 1533 1534 1536 1537 1538 1540 1541
1452 1449 1446 1446 1447 1448 1448 1448 1448 1448 1447 1447 1448 1448 1450 1451 1453 1455 1456 1458 1461 1466 1471 1476 1481 1485 1489 1493 1496 1500 1503 1506 1509 1512 1515 1518 1520 1523 1525 1527 1529 1531 1533 1534 1536 1537 1539 1540 1542
1449 1445 1445 1444 1445 1446 1445 1445 1445 1443 1442 1444 1445 1446 1447 1448 1449 1451 1454 1457 1461 1465 1468 1473 1478 1482 1487 1491 1494 1498 1501 1504 1507 1511 1514 1516 1519 1522 1524 1526 1528 1530 1532 1534 1536 1537 1539 1540 1542
1446 1443 1442 1442 1442 1442 1443 1442 1441 1438 1439 1440 1441 1442 1443 1444 1446 1448 1452 1456 1459 1462 1466 1470 1475 1479 1484 1488 1492 1496 1499 1503 1506 1509 1512 1515 1518 1521 1523 1526 1528 1530 1532 1534 1535 1537 1539 1540 1541
1442 1441 1440 1439 1439 1439 1439 1437 1438 1432 1436 1436 1437 1438 1439 1440 1443 1446 1449 1452 1455 1459 1464 1468 1472 1476 1481 1485 1489 1493 1497 1501 1504 1508 1511 1514 1517 1520 1522 1525 1527 1529 1532 1533 1535 1537 1538 1540 1541
1441 1441 1438 1435 1435 1434 1436 1433 1430 1429 1432 1432 1432 1433 1435 1437 1439 1441 1443 1447 1450 1455 1460 1465 1469 1474 1478 1482 1487 1491 1495 1499 1502 1506 1510 1513 1516 1519 1521 1524 1526 1529 1531 1533 1535 1536 1538 1539 1540
1440 1439 1438 1431 1431 1431 1435 1429 1423 1426 1427 1428 1428 1429 1431 1433 1435 1438 1441 1444 1448 1452 1457 1462 1466 1471 1475 1479 1484 1488 1493 1496 1500 1504 1508 1511 1514 1517 1520 1522 1525 1528 1530 1532 1534 1535 1537 1538 1539
1439 1438 1436 1431 1427 1427 1430 1424 1420 1422 1423 1423 1424 1425 1426 1428 1431 1435 1438 1441 1445 1449 1453 1458 1463 1467 1472 1477 1482 1486 1490 1494 1498 1502 1505 1508 1512 1515 1518 1521 1524 1526 1528 1530 1532 1534 1536 1537 1538
1437 1436 1432 1431 1426 1426 1425 1422 1419 1418 1420 1419 1420 1421 1422 1423 1425 1429 1433 1438 1442 1446 1450 1455 1460 1464 1469 1474 1479 1483 1487 1491 1495 1498 1502 1506 1509 1513 1516 1519 1522 1524 1526 1528 1530 1532 1534 1536 1537
1436 1435 1432 1428 1425 1425 1422 1419 1416 1415 1416 1416 1415 1416 1417 1418 1421 1425 1429 1433 1438 1442 1446 1450 1455 1460 1465 1469 1473 1477 1481 1486 1490 1494 1498 1503 1506 1510 1513 1516 1519 1521 1524 1526 1528 1530 1532 1533 1535
1435 1436 1433 1427 1424 1423 1420 1415 1411 1410 1410 1410 1410 1411 1412 1413 1416 1420 1423 1428 1432 1436 1440 1445 1450 1455 1459 1463 1467 1472 1477 1482 1486 1491 1495 1499 1503 1506 1509 1512 1515 1518 1521 1523 1526 1528 1529 1531 1533
1432 1433 1431 1429 1425 1421 1421 1415 1408 1404 1404 1404 1405 1405 1406 1408 1410 1413 1417 1421 1425 1429 1433 1438 1443 1448 1453 1458 1464 1470 1475 1479 1483 1486 1489 1494 1498 1502 1505 1509 1512 1515 1517 1520 1522 1525 1526 1528 1530
1430 1427 1427 1426 1429 1427 1422 1419 1406 1401 1400 1399 1399 1400 1400 1402 1405 1407 1411 1414 1418 1422 1427 1432 1437 1442 1448 1453 1458 1462 1466 1469 1473 1479 1484 1488 1493 1497 1501 1504 1508 1511 1513 1516 1519 1521 1523 1525 1526
1427 1424 1425 1425 1427 1429 1424 1425 1409 1400 1397 1394 1394 1393 1394 1396 1399 1401 1404 1408 1412 1416 1420 1425 1431 1436 1442 1447 1451 1456 1460 1465 1470 1475 1479 1484 1488 1492 1496 1500 1503 1506 1509 1512 1515 1517 1519 1521 1523
1425 1427 1425 1424 1427 1429 1420 1423 1410 1399 1392 1389 1388 1388 1388 1390 1393 1395 1399 1402 1406 1410 1414 1419 1424 1429 1435 1440 1445 1450 1454 1459 1464 1469 1473 1478 1482 1486 1490 1494 1498 1501 1504 1507 1510 1513 1515 1517 1519
1426 1431 1434 1432 1430 1426 1413 1413 1403 1392 1388 1386 1385 1384 1384 1386 1388 1390 1392 1395 1399 1403 1408 1412 1417 1422 1428 1433 1438 1443 1448 1453 1457 1462 1467 1471 1475 1479 1483 1488 1491 1495 1498 1502 1505 1508 1510 1512 1514
1425 1428 1434 1432 1426 1421 1412 1407 1397 1388 1384 1383 1383 1382 1382 1383 1384 1385 1387 1389 1392 1396 1401 1405 1410 1415 1420 1426 1431 1436 1441 1447 1451 1456 1461 1465 1469 1473 1478 1482 1486 1489 1493 1497 1500 1503 1505 1507 1509
1425 1425 1425 1428 1425 1422 1412 1403 1394 1385 1383 1382 1381 1380 1379 1380 1380 1381 1382 1384 1386 1390 1394 1398 1403 1408 1413 1418 1423 1428 1434 1439 1444 1449 1454 1459 1463 1468 1473 1477 1480 1484 1488 1491 1494 1497 1499 1502 1504
1425 1425 1427 1429 1426 1420 1410 1403 1396 1388 1384 1382 1381 1379 1378 1378 1378 1377 1378 1379 1381 1384 1388 1392 1396 1400 1405 1410 1416 1421 1426 1431 1437 1442 1447 1452 1457 1462 1466 1470 1474 1478 1482 1485 1488 1491 1494 1497 1499
1427 1427 1427 1428 1426 1424 1415 1402 1388 1387 1385 1383 1381 1379 1378 1377 1376 1375 1375 1375 1377 1379 1382 1385 1389 1394 1399 1403 1409 1414 1419 1424 1430 1435 1440 1445 1450 1455 1460 1464 1468 1472 1476 1479 1482 1485 1488 1491 1493
1423 1425 1427 1432 1431 1426 1421 1404 1386 1385 1384 1384 1381 1379 1377 1375 1374 1373 1372 1372 1372 1374 1376 1379 1383 1387 1392 1397 1402 1407 1412 1417 1423 1428 1433 1439 1444 1448 1453 1458 1462 1466 1469 1473 1476 1479 1482 1485 1487